Regional Weather Roundup
Issued by NWS Northern Indiana

Home | Current Version | Previous Version | Text Only | Print | Product List | Glossary On
Versions: 1 2 3 4 5 6 7 8 9 10 11 12 13 14 15 16 17 18 19 20 21 22 23 24 25 26 27 28 29 30 31 32 33 34 35 36 37 38 39 40 41 42 43 44 45 46 47 48 49 50
000
ASUS43 KIWX 202210
RWRIWX

KIWX WEATHER ROUNDUP
NATIONAL WEATHER SERVICE NORTHERN INDIANA
500 PM EST FRI JAN 20 2017

NOTE: "FAIR" INDICATES FEW OR NO CLOUDS BELOW 12,000 FEET WITH NO
SIGNIFICANT WEATHER AND/OR OBSTRUCTIONS TO VISIBILITY.

* THESE STATIONS ARE NOT UNDER NWS QUALITY CONTROL. THEY ALSO MAY NOT
  REPORT WEATHER SUCH AS PRECIPITATION OR FOG.

INZ001>027-202300-
NORTHERN INDIANA

CITY           SKY/WX    TMP DP  RH WIND       PRES   REMARKS
GARY*          CLOUDY    45  43  93 CALM      29.65R FOG
VALPARAISO     FOG       46  45  96 SE5       29.64F VSB 3/4
LAPORTE*       FOG       43  43 100 CALM      29.66S VSB 1/2
KNOX*          CLOUDY    45  39  81 CALM      29.66S
SOUTH BEND     FOG       42  42 100 SW3       29.68R VSB 1/2
ELKHART*       FOG       41  41 100 CALM      29.67R VSB 1/2
GOSHEN         CLOUDY    45  42  89 SW7       29.67R FOG
ROCHESTER*     CLOUDY    50  50 100 CALM      29.68R
WARSAW*        CLOUDY    45  43  93 CALM      29.68R FOG
FORT WAYNE     CLOUDY    50  46  86 SW7       29.68R
PERU/GRISSOM   CLOUDY    49  49 100 W3        29.67R
MARION*        CLOUDY    50  48  93 W5        29.69R

$$
INZ028>050-202300-
CENTRAL INDIANA

CITY           SKY/WX    TMP DP  RH WIND       PRES   REMARKS
LAFAYETTE      CLOUDY    50  49  96 SW3       29.67R
KOKOMO*        CLOUDY    50  48  93 SW5       29.70R
MUNCIE*        CLOUDY    55  47  74 SW6       29.68R
INDIANAPOLIS   CLOUDY    53  47  79 S7        29.69R

$$
MIZ043>046-050>051-056>058-064>065-071>073-077>080-202300-
SOUTHWEST LOWER MICHIGAN

CITY           SKY/WX    TMP DP  RH WIND       PRES   REMARKS
BATTLE CREEK   CLOUDY    40  38  93 SW3       29.67R
BENTON HARBOR  CLOUDY    42  40  92 CALM      29.66R FOG
COLDWATER*     FOG       41  41 100 CALM      29.67R VSB 3/4
HILLSDALE*     FOG       39  39 100 SW3       29.66R VSB 1
HOLLAND        CLOUDY    38  36  92 E5        29.67R
GRAND RAPIDS   LGT RAIN  36  34  92 E7        29.66R VSB 3/4
KALAMAZOO      FOG       40  37  89 S3        29.67R VSB 1
STURGIS*       FOG       41  41  99 SW3       29.67R VSB 1
THREE RIVERS*  CLOUDY    40  40  99 S3        29.68R FOG

$$
OHZ001>008-015>018-024>025-202300-
NORTHWEST OHIO

CITY           SKY/WX    TMP DP  RH WIND       PRES   REMARKS
DEFIANCE       CLOUDY    46  44  93 S5        29.69R
FINDLAY        CLOUDY    51  47  86 SW7       29.68R
TOLEDO EXPRESS CLOUDY    45  45 100 SW6       29.68R
TOLEDO METCALF CLOUDY    46  45  96 SW6       29.69R FOG
LIMA           CLOUDY    50  50 100 W3        29.70R

$$
AND FOR LAKE MICHIGAN COASTAL AND OPEN LAKE BUOY OBSERVATIONS

STATION/POSITION TEMP    WIND        PRES    VSBY  WAVE
                 AIR SEA DIR/SP/G                  HT/PER
                 (F)     (DEG/KT/KT) (MB)    (MI)  (FT/S)
CALUMET HARBOR    37     110/  3/  5 1003.7R
MICHIGAN CITY     38      40/  3/  3   N/A
BURNS HARBOR      36      80/  5/  6 1004.7R

$$
&&




USA.gov is the U.S. government's official web portal to all federal, state and local government web resources and services.